CDT,Max TemperatureF,Mean TemperatureF,Min TemperatureF,Max Dew PointF,MeanDew PointF,Min DewpointF,Max Humidity, Mean Humidity, Min Humidity, Max Sea Level PressureIn, Mean Sea Level PressureIn, Min Sea Level PressureIn, Max VisibilityMiles, Mean VisibilityMiles, Min VisibilityMiles, Max Wind SpeedMPH, Mean Wind SpeedMPH, Max Gust SpeedMPH,PrecipitationIn, CloudCover, Events, WindDirDegrees
2014-4-1,91,73,54,61,52,32,80,55,29,29.90,29.80,29.70,10,10,10,28,11,33,0.00,0,,201
2014-4-2,92,81,70,64,56,40,79,48,16,29.80,29.67,29.55,10,10,10,21,12,28,0.00,3,,198
2014-4-3,95,78,60,60,40,8,84,46,8,29.90,29.67,29.58,10,10,9,29,14,36,0.00,0,,253
2014-4-4,70,55,40,31,22,9,55,33,11,30.19,30.07,29.93,10,10,10,29,12,40,0.00,0,,59
2014-4-5,71,62,52,37,31,24,42,34,25,30.04,29.92,29.79,10,10,10,29,12,36,T,5,Rain,103
2014-4-6,65,56,46,51,46,39,89,71,52,29.85,29.80,29.73,10,10,4,21,10,26,0.17,6,Rain-Thunderstorm,75
2014-4-7,71,56,41,48,44,38,100,68,36,30.11,29.92,29.81,10,10,7,35,7,42,0.05,2,Rain-Thunderstorm,269
2014-4-8,79,62,44,39,31,24,70,42,13,30.26,30.18,30.11,10,10,10,22,9,28,0.00,0,,285
2014-4-9,90,67,43,34,28,21,60,34,8,30.17,30.08,29.94,10,10,10,25,12,31,0.00,0,,201
2014-4-10,96,80,64,46,36,23,48,28,7,29.94,29.87,29.77,10,10,10,28,20,37,0.00,0,,200
2014-4-11,97,79,61,55,44,30,78,44,10,29.91,29.84,29.76,10,10,10,22,12,28,0.00,0,,202
2014-4-12,93,79,64,59,54,48,78,51,24,29.85,29.77,29.67,10,10,10,28,14,34,0.00,0,,190
2014-4-13,90,78,65,66,59,49,87,57,26,29.81,29.66,29.53,10,10,7,25,14,33,0.04,2,Rain-Thunderstorm,203
2014-4-14,68,56,43,58,29,18,73,49,24,30.32,30.07,29.67,10,10,10,31,21,39,0.00,3,,360
2014-4-15,68,49,29,19,14,8,58,35,11,30.37,30.23,30.04,10,10,10,16,6,24,0.00,0,,213
2014-4-16,79,63,47,36,25,18,40,28,15,30.03,29.90,29.77,10,10,10,25,14,32,0.00,0,,176
2014-4-17,70,61,51,55,50,36,93,72,50,30.19,30.01,29.85,10,10,10,16,9,20,0.00,6,,110
2014-4-18,78,67,56,53,50,44,86,60,33,30.23,30.15,30.03,10,10,10,17,8,20,0.00,6,,65
2014-4-19,79,68,57,60,52,48,80,60,39,30.14,30.05,29.95,10,10,7,24,10,30,0.02,4,Rain-Thunderstorm,156
2014-4-20,74,68,61,65,61,57,93,81,68,30.11,30.02,29.95,10,9,3,22,10,28,0.13,4,Rain-Thunderstorm,184
2014-4-21,94,80,65,63,56,42,93,56,19,30.03,29.95,29.84,10,10,8,24,13,30,0.00,4,,250
2014-4-22,88,71,53,57,49,40,89,54,19,30.06,29.97,29.86,10,10,2,18,7,25,0.00,0,,78
2014-4-23,95,81,66,61,54,49,73,47,20,29.87,29.73,29.57,10,10,10,26,15,35,T,0,,171
2014-4-24,87,72,56,61,39,24,76,44,11,29.95,29.82,29.64,10,9,5,25,11,29,0.00,3,,319
2014-4-25,94,72,49,56,44,30,54,38,21,30.02,29.87,29.73,10,10,10,21,10,27,0.00,0,,147
2014-4-26,94,82,69,63,59,53,73,51,28,29.79,29.64,29.50,10,10,10,23,14,32,0.00,1,,180
2014-4-27,90,80,70,66,38,17,79,45,10,29.60,29.52,29.45,10,10,10,36,19,45,0.00,2,,252
2014-4-28,88,72,56,25,22,18,26,18,9,29.73,29.65,29.58,10,10,10,28,13,36,0.00,0,,269
2014-4-29,77,67,57,33,25,16,37,24,10,30.01,29.86,29.69,10,9,4,30,16,36,0.00,2,,344
2014-4-30,73,63,53,30,26,22,38,28,17,30.21,30.13,30.04,10,9,7,24,12,32,0.00,3,,15